Location: McFarlands Corners
(41.4117°N, 81.3382°W)
Time: 16:42:47
(UTC+00:00)

SR - Pass Details

Date: 20 February 2026
Orbit: 572 x 849 km, 66.7° (Epoch: 12 March)

Event Time Altitude Azimuth Distance (km) Brightness Sun altitude
Rises 19:37:27 0° 311° (NW) 3,158 ? 31.2°
Reaches altitude 10° 19:40:36 10° 291° (WNW) 2,288 ? 30.9°
Maximum altitude 19:43:44 16° 254° (WSW) 1,938 ? 30.5°
Drops below altitude 10° 19:46:59 10° 217° (SW) 2,375 ? 30.2°
Sets 19:50:22 0° 197° (SSW) 3,342 ? 29.8°
